Temp
-8 -8 -8 -8 -8 -8 -8 -9 -9 -9 -9 -9 -9 -9 -9 -10 -10 -10 -11 -11 -11 -11 -12 -12 -12 -12 -12 -12 -12 -12 -12 -13 -13 -13 -14 -14 -14 -14 -14 -13 -13 -13 -13
-8 -8 -8 -8 -9 -9 -9 -9 -9 -9 -9 -9 -10 -10 -10 -10 -11 -11 -11 -11 -11 -12 -12 -12 -12 -13 -13 -13 -13 -13 -13 -13 -13 -14 -14 -15 -15 -15 -14 -14 -13 -13 -13
-8 -8 -9 -9 -9 -9 -9 -9 -9 -9 -10 -10 -10 -10 -10 -10 -11 -11 -11 -11 -12 -12 -13 -13 -13 -13 -13 -13 -14 -14 -14 -13 -14 -14 -14 -14 -15 -15 -15 -14 -14 -14 -13
-9 -9 -9 -9 -9 -9 -10 -10 -10 -10 -10 -11 -11 -11 -11 -11 -11 -11 -11 -12 -12 -13 -13 -13 -13 -14 -14 -14 -14 -14 -14 -14 -14 -14 -14 -14 -14 -15 -15 -14 -14 -14 -14
-9 -9 -9 -9 -9 -9 -10 -10 -10 -10 -11 -11 -10 -11 -11 -11 -11 -11 -12 -12 -12 -13 -13 -14 -14 -14 -15 -14 -14 -14 -15 -14 -14 -14 -14 -14 -14 -15 -15 -15 -15 -14 -14
-9 -9 -9 -10 -10 -10 -10 -10 -11 -11 -10 -11 -11 -11 -11 -11 -11 -12 -12 -12 -13 -13 -14 -14 -14 -14 -15 -15 -15 -15 -14 -15 -15 -15 -15 -15 -15 -15 -15 -15 -15 -15 -15
-10 -10 -10 -10 -10 -10 -10 -10 -10 -10 -11 -11 -11 -11 -11 -11 -11 -12 -12 -13 -13 -14 -14 -14 -14 -14 -15 -15 -15 -15 -15 -15 -16 -15 -15 -15 -15 -15 -15 -15 -15 -15 -15
-10 -10 -10 -10 -10 -10 -10 -11 -11 -11 -11 -11 -10 -11 -11 -11 -12 -12 -12 -13 -13 -13 -14 -14 -14 -14 -15 -15 -15 -15 -16 -16 -16 -16 -15 -16 -16 -16 -16 -16 -15 -16 -15
-10 -10 -10 -10 -10 -10 -10 -10 -10 -10 -11 -11 -11 -11 -11 -11 -11 -12 -13 -13 -13 -13 -14 -14 -14 -14 -15 -16 -16 -16 -16 -16 -16 -16 -16 -16 -16 -16 -16 -16 -16 -16 -16
-10 -10 -10 -10 -10 -10 -11 -11 -11 -11 -11 -11 -11 -12 -12 -12 -12 -12 -12 -13 -13 -13 -13 -13 -14 -14 -15 -16 -16 -16 -17 -17 -17 -17 -16 -15 -16 -15 -16 -16 -16 -16 -15
-11 -11 -11 -11 -11 -11 -11 -11 -11 -11 -11 -11 -12 -12 -12 -12 -13 -13 -13 -13 -13 -13 -14 -14 -14 -15 -15 -16 -16 -17 -18 -18 -17 -17 -16 -16 -15 -15 -15 -16 -16 -16 -15
-11 -11 -11 -11 -11 -11 -11 -11 -11 -11 -11 -12 -12 -12 -12 -13 -13 -13 -13 -13 -13 -14 -14 -14 -15 -15 -16 -16 -17 -18 -19 -20 -19 -18 -17 -17 -16 -16 -16 -16 -16 -15 -16
-12 -11 -11 -11 -11 -11 -11 -12 -12 -12 -12 -12 -12 -12 -13 -13 -13 -13 -13 -13 -13 -14 -14 -15 -15 -15 -16 -16 -18 -19 -20 -20 -19 -19 -18 -17 -17 -17 -16 -16 -16 -16 -16
-12 -12 -12 -12 -12 -12 -12 -12 -12 -12 -12 -12 -13 -13 -13 -13 -13 -13 -13 -13 -14 -14 -15 -15 -15 -16 -16 -17 -18 -19 -20 -20 -20 -19 -20 -19 -17 -17 -17 -16 -16 -16 -16
-12 -12 -12 -12 -12 -12 -12 -12 -12 -13 -13 -13 -13 -13 -13 -13 -14 -14 -14 -14 -14 -15 -15 -15 -15 -16 -16 -18 -18 -19 -20 -21 -20 -20 -19 -18 -18 -17 -17 -16 -17 -17 -16
-12 -12 -12 -12 -12 -12 -12 -13 -13 -13 -13 -13 -14 -14 -14 -14 -14 -14 -14 -14 -15 -15 -15 -15 -16 -16 -17 -18 -18 -19 -20 -20 -19 -19 -18 -18 -17 -17 -17 -17 -17 -17 -16
-13 -13 -13 -13 -12 -13 -13 -13 -13 -13 -14 -14 -14 -14 -14 -14 -14 -14 -14 -15 -15 -15 -15 -15 -16 -16 -17 -17 -18 -19 -20 -19 -19 -19 -19 -18 -18 -17 -17 -17 -17 -17 -17
-13 -13 -13 -13 -13 -13 -13 -13 -14 -14 -14 -14 -14 -14 -14 -14 -15 -15 -15 -15 -15 -15 -15 -16 -16 -16 -17 -17 -18 -18 -19 -18 -18 -18 -18 -18 -18 -18 -18 -17 -17 -17 -17
-13 -13 -13 -13 -13 -14 -14 -14 -14 -15 -15 -15 -15 -15 -15 -15 -15 -15 -16 -15 -16 -16 -16 -16 -16 -17 -17 -17 -18 -18 -19 -19 -19 -19 -18 -18 -18 -18 -17 -18 -18 -18 -18
-14 -14 -14 -14 -14 -14 -14 -15 -15 -15 -15 -15 -15 -15 -15 -15 -15 -16 -16 -16 -16 -16 -16 -17 -17 -17 -17 -17 -18 -18 -18 -19 -19 -19 -19 -19 -18 -19 -19 -19 -19 -19 -19
-14 -14 -14 -15 -15 -15 -15 -15 -15 -15 -16 -16 -15 -15 -15 -16 -16 -16 -16 -16 -16 -17 -17 -17 -17 -17 -17 -17 -18 -18 -18 -18 -19 -19 -19 -19 -19 -19 -19 -19 -19 -19 -20
-14 -14 -15 -15 -15 -16 -16 -16 -16 -16 -16 -16 -16 -16 -16 -16 -16 -16 -17 -17 -17 -17 -17 -17 -17 -18 -18 -18 -18 -18 -18 -18 -18 -19 -19 -19 -19 -19 -19 -20 -20 -20 -20
-15 -15 -16 -16 -16 -16 -16 -16 -16 -16 -16 -16 -16 -16 -16 -17 -17 -17 -17 -17 -17 -17 -17 -17 -17 -18 -18 -18 -18 -18 -18 -18 -18 -19 -19 -19 -20 -20 -20 -20 -21 -21 -21
-16 -16 -16 -16 -16 -16 -16 -17 -17 -17 -17 -17 -17 -17 -17 -17 -17 -17 -17 -17 -17 -17 -18 -18 -18 -18 -18 -18 -18 -18 -19 -19 -19 -19 -19 -20 -20 -20 -20 -21 -21 -21 -21
-16 -16 -16 -16 -17 -17 -17 -17 -17 -17 -17 -17 -17 -17 -18 -18 -18 -18 -18 -18 -18 -18 -18 -18 -18 -18 -18 -19 -19 -19 -19 -19 -19 -19 -20 -20 -20 -20 -21 -21 -21 -22 -22
-17 -17 -17 -17 -17 -18 -18 -18 -18 -18 -18 -18 -18 -18 -18 -18 -18 -18 -18 -18 -18 -18 -18 -18 -19 -19 -19 -19 -19 -19 -19 -20 -20 -20 -20 -20 -20 -21 -21 -22 -22 -22 -22
Height
5870 5869 5869 5868 5867 5867 5866 5865 5863 5861 5859 5857 5855 5853 5851 5848 5847 5845 5843 5841 5838 5836 5834 5832 5830 5828 5827 5825 5823 5821 5820 5819 5818 5817 5817 5817 5816 5815 5814 5813 5813 5813 5813
5866 5865 5865 5864 5863 5862 5861 5859 5858 5856 5854 5852 5849 5847 5844 5843 5841 5839 5837 5836 5833 5830 5828 5826 5823 5821 5819 5818 5817 5816 5814 5813 5812 5811 5810 5810 5810 5810 5810 5810 5809 5809 5809
5861 5860 5860 5859 5857 5857 5855 5854 5852 5850 5848 5846 5844 5841 5839 5838 5836 5833 5831 5828 5825 5823 5821 5818 5816 5814 5812 5811 5809 5808 5807 5806 5806 5805 5804 5803 5802 5802 5802 5803 5803 5803 5804
5855 5855 5854 5853 5852 5851 5849 5847 5845 5843 5842 5840 5837 5835 5834 5831 5829 5826 5824 5820 5817 5815 5812 5809 5807 5806 5804 5803 5801 5800 5799 5798 5798 5798 5797 5797 5796 5795 5795 5795 5795 5796 5797
5850 5850 5849 5847 5845 5844 5843 5841 5839 5836 5834 5832 5830 5828 5826 5824 5821 5819 5815 5811 5808 5806 5803 5800 5798 5797 5796 5794 5793 5791 5790 5789 5788 5788 5787 5787 5787 5787 5787 5787 5787 5788 5789
5843 5843 5842 5841 5839 5837 5836 5834 5832 5830 5828 5826 5824 5822 5819 5816 5813 5810 5806 5803 5800 5798 5795 5792 5789 5787 5785 5784 5782 5782 5781 5779 5778 5778 5777 5777 5777 5777 5778 5779 5779 5780 5780
5836 5836 5835 5833 5831 5830 5829 5827 5825 5823 5821 5818 5815 5814 5811 5808 5805 5801 5798 5795 5792 5789 5786 5782 5779 5776 5774 5772 5771 5769 5768 5767 5768 5766 5766 5766 5766 5766 5767 5768 5769 5770 5771
5829 5828 5827 5826 5824 5823 5821 5819 5817 5816 5813 5809 5807 5804 5804 5802 5797 5792 5789 5786 5783 5780 5776 5773 5770 5767 5763 5761 5760 5757 5756 5755 5754 5755 5754 5754 5754 5754 5755 5756 5757 5759 5760
5822 5822 5820 5818 5816 5814 5812 5811 5809 5807 5805 5802 5797 5794 5793 5793 5790 5787 5782 5778 5774 5771 5768 5764 5759 5754 5751 5748 5746 5745 5743 5741 5741 5740 5741 5741 5741 5742 5743 5745 5745 5745 5746
5813 5812 5812 5810 5807 5805 5804 5802 5799 5797 5794 5792 5789 5785 5783 5782 5779 5779 5775 5770 5767 5763 5758 5754 5748 5743 5739 5735 5732 5729 5727 5725 5724 5725 5727 5725 5729 5727 5730 5732 5733 5734 5736
5802 5802 5800 5799 5797 5795 5794 5792 5789 5787 5784 5782 5780 5777 5773 5771 5769 5766 5765 5762 5758 5753 5749 5743 5738 5733 5727 5722 5717 5712 5707 5706 5706 5708 5707 5712 5711 5712 5715 5718 5720 5722 5724
5793 5792 5790 5789 5787 5786 5784 5782 5779 5777 5774 5772 5769 5767 5764 5761 5758 5756 5754 5751 5748 5744 5739 5732 5725 5719 5713 5708 5700 5693 5687 5685 5687 5687 5690 5688 5693 5698 5701 5701 5703 5706 5710
5784 5782 5781 5780 5778 5777 5774 5771 5768 5765 5763 5761 5759 5756 5754 5751 5748 5745 5743 5741 5737 5734 5728 5721 5714 5706 5700 5692 5683 5676 5669 5666 5667 5666 5673 5673 5676 5683 5687 5688 5691 5692 5696
5773 5772 5771 5771 5769 5766 5764 5761 5758 5756 5754 5752 5749 5747 5744 5741 5738 5735 5732 5729 5727 5722 5718 5710 5703 5694 5687 5678 5670 5661 5654 5650 5650 5654 5658 5656 5662 5669 5674 5675 5679 5681 5684
5763 5762 5762 5761 5759 5756 5754 5751 5749 5747 5745 5742 5740 5738 5735 5732 5729 5725 5722 5718 5714 5711 5707 5700 5693 5685 5677 5668 5660 5652 5645 5641 5640 5646 5648 5648 5652 5658 5662 5665 5667 5670 5674
5752 5751 5750 5748 5747 5745 5743 5741 5739 5737 5734 5732 5730 5727 5725 5722 5719 5715 5711 5707 5703 5699 5696 5690 5683 5676 5668 5660 5652 5645 5639 5636 5636 5639 5635 5639 5643 5648 5652 5653 5656 5658 5663
5742 5741 5739 5737 5735 5734 5732 5731 5729 5726 5724 5722 5720 5717 5715 5711 5709 5705 5701 5697 5693 5690 5686 5681 5675 5668 5661 5653 5646 5640 5636 5633 5633 5633 5632 5634 5636 5641 5643 5645 5648 5648 5651
5731 5730 5729 5727 5726 5724 5722 5721 5719 5717 5715 5713 5711 5708 5705 5702 5699 5695 5691 5688 5684 5681 5678 5673 5667 5661 5655 5647 5640 5634 5631 5632 5631 5631 5632 5634 5634 5634 5636 5637 5639 5638 5639
5720 5719 5718 5718 5717 5715 5714 5712 5710 5708 5706 5703 5701 5698 5696 5693 5689 5686 5682 5679 5676 5673 5669 5665 5660 5655 5649 5643 5637 5633 5631 5629 5627 5626 5626 5626 5626 5625 5626 5625 5627 5628 5628
5710 5709 5709 5709 5707 5706 5704 5703 5701 5699 5696 5694 5691 5689 5686 5683 5680 5677 5674 5671 5668 5665 5662 5658 5653 5649 5644 5639 5635 5632 5628 5625 5624 5622 5620 5619 5619 5618 5618 5618 5619 5618 5619
5701 5701 5700 5699 5698 5697 5695 5693 5691 5689 5687 5685 5682 5679 5677 5674 5671 5668 5666 5663 5660 5657 5654 5650 5646 5643 5639 5635 5631 5628 5625 5622 5619 5617 5615 5613 5611 5611 5609 5610 5609 5607 5606
5693 5692 5691 5690 5689 5687 5686 5684 5683 5681 5679 5676 5674 5671 5668 5666 5663 5660 5658 5655 5653 5649 5646 5642 5639 5635 5631 5628 5625 5621 5618 5615 5612 5609 5607 5604 5602 5601 5600 5599 5597 5595 5593
5683 5683 5682 5682 5681 5679 5678 5677 5675 5673 5670 5668 5665 5663 5660 5657 5655 5653 5650 5647 5644 5641 5638 5634 5630 5626 5623 5619 5616 5613 5609 5606 5603 5600 5597 5593 5591 5590 5587 5585 5582 5579 5577
5674 5675 5674 5674 5674 5672 5671 5669 5667 5665 5662 5660 5657 5655 5652 5649 5647 5645 5643 5640 5636 5633 5629 5625 5621 5617 5613 5610 5606 5603 5599 5595 5592 5589 5585 5582 5578 5575 5571 5568 5565 5563 5560
5667 5667 5667 5667 5666 5666 5664 5662 5660 5658 5655 5653 5650 5647 5645 5642 5639 5636 5634 5631 5627 5624 5620 5615 5611 5607 5603 5599 5595 5591 5588 5584 5580 5576 5573 5569 5565 5560 5556 5552 5548 5543 5539
5660 5660 5661 5660 5659 5658 5657 5655 5653 5651 5649 5646 5643 5640 5637 5634 5631 5628 5625 5622 5618 5615 5610 5606 5602 5597 5593 5589 5584 5580 5576 5572 5568 5564 5559 5555 5551 5547 5542 5537 5532 5526 5522
Wind_Speed
21 22 21 22 22 22 23 24 25 27 27 27 28 29 30 30 31 31 32 33 34 35 36 36 36 35 34 33 32 31 30 30 29 28 29 29 29 27 24 22 22 21 21
23 23 23 24 25 25 27 28 29 29 29 28 30 31 32 33 34 35 36 36 36 37 37 37 38 38 38 37 36 34 33 32 32 32 31 31 30 29 28 26 24 24 23
25 25 25 27 28 28 29 30 31 31 31 31 33 34 35 37 38 39 39 39 39 39 38 38 38 38 39 39 39 39 38 37 36 35 35 34 33 32 31 29 28 27 27
26 27 27 30 31 31 31 32 33 33 34 35 36 37 38 40 41 41 40 40 39 39 41 42 41 40 40 42 41 39 40 40 41 39 38 38 38 37 35 34 32 31 30
29 29 30 32 34 34 34 35 35 35 37 39 40 41 42 42 42 41 41 42 42 43 43 43 41 41 42 43 43 43 42 42 42 43 42 41 41 41 40 38 36 34 34
32 32 33 35 36 37 37 37 37 38 41 41 42 42 43 43 42 41 41 42 43 42 42 43 45 44 44 45 45 46 45 42 44 46 46 44 42 42 42 41 39 38 36
35 35 36 37 38 39 40 39 40 42 42 44 45 44 43 42 42 42 42 43 41 43 45 46 46 48 47 47 47 48 47 46 45 46 47 48 46 44 44 42 42 42 41
38 38 39 40 41 41 42 42 42 44 44 46 47 46 42 41 41 43 43 43 45 44 43 47 49 52 53 51 50 51 50 50 49 47 50 48 49 49 47 46 45 44 46
42 41 41 42 43 44 45 44 45 45 46 46 45 45 45 44 44 42 42 41 40 44 47 50 54 56 53 54 54 55 56 57 55 53 51 50 52 52 50 49 48 48 50
43 43 44 44 45 45 45 46 47 47 48 46 45 44 43 44 43 43 41 39 42 46 48 51 54 52 51 52 53 55 57 55 57 57 54 58 52 53 54 48 49 49 49
46 48 46 45 46 45 46 47 49 48 47 45 43 42 42 42 44 42 38 40 45 48 48 50 52 53 54 56 58 61 63 61 58 61 50 56 57 56 56 52 49 47 50
52 49 47 47 46 45 47 49 49 48 47 45 43 43 42 43 42 39 39 44 47 48 49 50 52 53 56 59 61 61 63 61 61 60 60 50 60 54 53 51 47 46 53
50 49 47 45 44 46 48 49 49 48 46 44 44 42 43 42 43 42 44 46 47 48 46 49 52 54 56 58 55 55 54 57 56 50 53 59 48 53 55 51 41 46 45
47 45 42 42 45 47 48 47 46 44 43 42 42 43 42 42 44 43 46 47 48 47 46 49 50 51 53 50 51 52 49 49 47 55 55 54 57 51 40 34 44 40 41
43 42 42 47 49 49 48 46 43 41 41 40 41 41 41 42 43 44 46 48 49 45 45 45 44 45 45 42 43 42 40 36 33 42 49 52 48 46 45 45 48 41 39
43 46 51 53 51 48 45 42 41 40 40 40 40 39 40 40 42 44 45 48 45 44 40 39 41 40 39 39 38 32 31 25 22 27 25 28 39 36 32 32 37 48 45
50 55 53 50 47 44 41 40 40 39 40 41 40 40 40 41 43 43 46 44 41 39 36 36 35 36 35 34 35 29 20 19 26 18 16 12 21 28 28 29 38 35 36
51 48 46 44 42 39 39 39 39 39 40 40 40 42 41 42 41 44 42 39 35 33 33 34 33 34 34 32 30 21 15 16 16 13 14 17 20 20 24 24 27 30 31
45 43 41 39 38 38 38 38 39 39 41 42 42 40 41 40 42 41 37 33 30 31 31 31 31 31 30 29 27 21 16 18 16 15 19 20 20 21 25 28 29 29 29
41 38 36 37 37 37 38 39 39 39 39 39 39 38 38 39 39 35 31 30 30 29 30 30 28 28 28 29 26 22 20 19 18 18 18 20 22 23 26 27 29 30 32
37 36 36 35 38 39 39 37 36 36 35 34 35 35 36 35 34 31 30 28 29 29 30 29 28 28 28 27 28 28 26 26 25 25 25 25 27 29 31 33 35 36 37
36 36 36 37 36 33 33 33 33 33 33 33 34 33 33 32 31 31 29 29 30 29 29 30 30 30 30 29 29 29 30 31 32 32 34 35 35 36 38 39 40 42 43
35 35 32 29 29 29 29 29 29 30 31 31 32 32 31 30 30 30 30 31 31 31 32 32 32 32 32 32 33 33 33 34 35 37 38 40 40 40 42 43 43 44 45
28 26 25 26 27 27 27 28 29 30 29 30 30 30 30 30 30 31 31 32 32 32 33 34 35 35 36 36 37 38 38 39 40 41 43 43 45 46 47 48 48 49 51
24 23 23 25 24 25 26 26 27 28 28 29 29 30 30 31 32 33 33 32 32 35 36 37 37 38 38 39 40 40 41 42 43 44 46 47 49 51 52 53 55 56 56
21 21 21 22 23 22 23 25 27 28 28 28 28 29 31 32 32 32 33 34 36 37 36 37 38 39 40 41 42 42 43 43 44 46 48 50 52 54 55 55 57 58 59
Wind_Direction
291 292 296 296 295 295 296 296 297 300 303 304 306 306 307 308 308 305 303 303 302 301 300 298 298 297 295 292 289 285 282 279 276 273 271 273 278 277 274 269 269 267 264
286 290 293 293 294 294 298 298 300 302 303 303 304 304 305 305 305 303 304 304 300 298 298 298 297 295 292 290 288 285 282 278 276 272 267 267 270 274 274 272 270 269 267
284 288 290 292 291 294 296 297 300 302 302 303 303 304 304 303 303 303 302 302 300 301 299 297 295 295 294 293 290 285 284 282 278 275 272 267 266 268 268 270 269 268 268
286 288 288 289 291 293 294 296 298 300 300 300 301 300 301 301 300 298 301 301 300 299 298 299 298 295 294 294 292 289 285 282 281 280 276 274 272 269 267 266 265 264 263
280 282 286 288 290 293 293 295 296 296 297 298 298 299 300 298 298 301 300 299 297 297 296 297 295 295 294 296 295 291 287 286 280 277 275 272 271 270 270 268 268 265 262
281 283 283 286 289 289 290 290 291 292 293 294 294 298 297 298 300 300 298 296 296 299 297 295 294 294 293 292 291 289 288 288 284 278 273 270 269 268 269 270 269 268 265
279 280 282 284 285 287 286 286 287 290 292 294 295 296 297 298 301 299 299 298 300 297 296 293 292 293 292 290 288 287 285 282 279 279 275 270 268 268 266 266 268 268 266
275 278 280 281 282 282 282 282 287 289 292 294 294 294 295 297 297 297 299 301 301 299 299 300 298 296 293 289 286 285 284 282 281 277 276 274 270 267 266 266 264 265 266
270 272 275 278 280 281 282 285 288 290 291 293 294 294 294 293 292 294 298 299 298 300 300 300 300 298 296 295 290 286 283 281 278 276 273 272 272 269 267 266 267 264 261
270 273 276 277 278 279 281 284 288 291 293 293 291 293 293 294 294 294 297 295 297 300 301 301 300 299 298 294 290 288 284 280 275 271 272 264 269 261 267 264 266 268 271
275 280 279 279 280 282 284 287 289 291 292 291 292 293 294 294 298 299 296 295 299 301 301 300 298 297 296 294 293 288 281 273 265 265 265 257 264 259 263 260 266 265 271
275 274 276 279 280 282 284 288 290 292 291 292 293 293 293 298 299 298 296 301 303 302 301 300 298 300 299 300 300 286 279 275 261 262 266 258 251 262 267 267 259 258 266
269 273 277 277 280 284 288 290 291 291 291 292 294 292 296 297 301 296 300 302 303 302 300 300 301 301 303 308 304 296 286 281 268 264 261 255 263 261 263 267 264 260 258
274 275 276 280 285 287 288 289 288 288 289 290 290 294 295 297 300 298 300 302 302 302 301 302 304 305 310 313 310 305 293 284 269 261 277 268 255 258 258 258 262 264 266
274 275 278 285 288 288 287 285 284 286 288 289 291 292 296 297 297 297 300 302 302 304 304 305 307 311 313 317 320 311 302 293 276 270 277 269 264 263 271 258 266 267 275
275 279 286 288 287 286 284 284 286 288 289 290 292 293 295 296 296 299 301 303 303 306 306 307 310 317 315 311 314 320 317 298 291 266 283 269 249 259 265 263 257 264 271
279 284 284 284 283 282 283 285 287 288 289 288 291 293 295 296 298 300 302 302 304 305 307 310 314 324 330 319 319 311 315 335 298 329 350 296 278 268 273 276 261 270 269
279 280 280 279 280 282 283 285 286 288 286 288 292 291 292 295 297 299 300 300 301 302 308 310 317 322 328 338 337 315 315 306 312 333 326 291 284 281 272 279 272 272 271
277 276 276 277 279 281 283 283 286 286 288 290 289 290 293 295 298 299 297 298 300 302 307 310 316 320 330 335 343 341 328 316 304 295 281 287 284 276 275 278 274 270 270
272 272 274 277 280 281 282 284 287 287 287 288 289 291 294 297 298 295 294 296 298 301 303 306 312 319 323 326 331 329 321 315 306 299 292 286 284 283 281 279 278 275 272
272 274 276 279 279 280 283 284 285 286 287 288 291 293 296 297 294 293 293 294 297 299 301 304 308 310 311 314 314 315 314 310 306 301 297 292 288 284 282 281 280 281 280
272 275 275 275 279 282 284 284 286 287 288 292 294 296 295 294 292 292 292 293 295 297 299 300 302 301 303 303 304 304 303 303 303 300 298 297 294 292 288 286 285 283 283
268 269 272 277 281 284 284 285 286 290 293 294 295 294 294 294 292 293 293 294 295 296 296 298 300 301 301 299 298 297 297 298 298 297 296 295 295 290 288 288 289 289 287
264 270 275 278 280 281 283 287 290 292 294 295 295 295 295 292 291 290 291 292 294 295 296 296 298 300 301 300 299 298 299 299 299 298 296 294 294 293 292 292 292 292 291
267 270 272 274 278 285 289 292 296 298 300 299 298 296 295 294 294 293 292 292 294 297 298 299 300 301 301 300 299 298 299 298 297 298 297 296 296 296 296 296 296 297 296
261 265 269 274 279 285 293 299 299 302 302 304 305 302 298 296 295 294 295 295 296 297 299 300 300 302 302 301 301 301 300 299 298 298 297 296 295 294 294 295 295 294 292